Tracking 31027 objects as of 19-Jul-2025
HD Live streaming from Space Station
objects crossing your sky now

COSMOS 1394

Track COSMOS 1394 now!
10-day predictions
COSMOS 1394 is classified as:


NORAD ID: 13381
Int'l Code: 1982-073G
Perigee: 1,480.6 km
Apogee: 1,503.1 km
Inclination: 74.0 °
Period: 115.6 minutes
Semi major axis: 7862 km
RCS: 0.7023 m2 (medium)
Launch date: July 21, 1982
Source: Commonwealth of Independent States (former USSR) (CIS)
Launch site: PLESETSK MISSILE AND SPACE COMPLEX (PKMTR)
Your satellite tracking list
No more satellites can be added for tracking (max 5)
FOX-1B (RADFXSAT AO-91)
FOX-1D (AO-92)
FOX-1A (AO-85)
FUNCUBE 1 (AO-73)
SPACE STATION
Track 5 satellite(s)




NASA's NSSDC Master Catalog

Two Line Element Set (TLE):
1 13381U 82073G   25199.48151501 -.00000011  00000-0  33183-4 0  9992
2 13381  74.0116 229.1560 0014303 298.1394 170.4502 12.45186186954299
Source of the keplerian elements: AFSPC